Location: Grust
(42.8833°N, 0.0333°W)
Time: 14:49:18
(UTC+00:00)

H-2A R/B - Pass Details

Date: 25 October 2020
Orbit: 733 x 837 km, 98.2° (Epoch: 24 November)

Event Time Altitude Azimuth Distance (km) Brightness Sun altitude
Exits shadow 18:20:30 - 144° (SE) 3,184 4.9 -15.1°
Reaches altitude 10° 18:22:32 10° 138° (SE) 2,419 4.2 -15.4°
Maximum altitude 18:27:34 42° 69° (ENE) 1,168 2.5 -16.3°
Drops below altitude 10° 18:32:41 10° 0° (N) 2,460 4.6 -17.3°
Sets 18:35:10 0° 354° (N) 3,398 5.4 -17.7°
